Location: Invercargill
(46.4000°S, 168.3500°E)
Time: 16:24:41
(UTC+12:00)

Meteor 2-8 Rocket - Pass Details

Date: 24 January 2019
Orbit: 936 x 959 km, 82.5° (Epoch: 17 April)

Event Time Altitude Azimuth Distance (km) Brightness Sun altitude
Rises 23:17:15 0° 190° (S) 3,637 8.6 -14.9°
Reaches altitude 10° 23:19:46 10° 189° (S) 2,685 7.8 -15.2°
Maximum altitude 23:25:55 90° 95° (E) 954 4.4 -15.9°
Enters shadow 23:30:17 20° 8° (N) 2,018 5.7 -16.3°
